When you browse on this site, cookies collect data to enhance your experience and personalize the content and advertising you see.
Visit our Privacy Policy to learn more. By continuing to use the site, you agree to this use of cookies and data.
  • In Hungary
  • List of Countries
  • For 7 days
  • Water Temperature
  • Satellite Maps
  • Weather Map
  • News
  • Weather Widgets
  • user-avatar
    Login

    Hourly Weather Fanislawiczki

    Today, 27 May, Monday

    Time Temperature Precipitation Wind Pressure Humidity
    00:00 +14°C° 0 mm 2 mps 738 mmHg 89%
    01:00 +14°C° 0 mm 2 mps 738 mmHg 91%
    02:00 +14°C° 0 mm 2 mps 738 mmHg 92%
    03:00 +14°C° 0 mm 2 mps 737 mmHg 93%
    04:00 +13°C° 0 mm 2 mps 737 mmHg 94%
    05:00 +14°C° 0 mm 3 mps 737 mmHg 88%
    06:00 +17°C° 0 mm 3 mps 737 mmHg 82%
    07:00 +19°C° 0 mm 3 mps 737 mmHg 77%
    08:00 +20°C° 0.2 mm 4 mps 737 mmHg 72%
    09:00 +22°C° 0.2 mm 4 mps 737 mmHg 66%
    10:00 +23°C° 0.2 mm 4 mps 737 mmHg 61%
    11:00 +23°C° 0.6 mm 4 mps 737 mmHg 61%
    12:00 +25°C° 0.6 mm 4 mps 736 mmHg 61%
    13:00 +25°C° 0.6 mm 4 mps 736 mmHg 60%
    14:00 +25°C° 0.4 mm 4 mps 736 mmHg 63%
    15:00 +25°C° 0.4 mm 3 mps 736 mmHg 65%
    16:00 +24°C° 0.4 mm 3 mps 735 mmHg 67%
    17:00 +22°C° 0.3 mm 3 mps 735 mmHg 72%
    18:00 +21°C° 0.3 mm 2 mps 735 mmHg 77%
    19:00 +21°C° 0.3 mm 1 mps 735 mmHg 82%
    20:00 +20°C° 0 mm 1 mps 735 mmHg 83%
    21:00 +19°C° 0 mm 1 mps 735 mmHg 85%
    22:00 +19°C° 0 mm 1 mps 734 mmHg 87%
    23:00 +18°C° 0.6 mm 1 mps 734 mmHg 89%

    Tomorrow, 28 May, Tuesday

    Time Temperature Precipitation Wind Pressure Humidity
    00:00 +18°C° 0.6 mm 1 mps 734 mmHg 91%
    01:00 +18°C° 0.6 mm 1 mps 733 mmHg 93%
    02:00 +18°C° 0.1 mm 1 mps 733 mmHg 94%
    03:00 +18°C° 0.1 mm 1 mps 733 mmHg 95%
    04:00 +16°C° 0.1 mm 1 mps 732 mmHg 96%
    05:00 +17°C° 0 mm 2 mps 732 mmHg 92%
    06:00 +18°C° 0 mm 2 mps 732 mmHg 89%
    07:00 +20°C° 0 mm 2 mps 732 mmHg 85%
    08:00 +21°C° 0.2 mm 3 mps 732 mmHg 79%
    09:00 +22°C° 0.2 mm 3 mps 732 mmHg 72%
    10:00 +23°C° 0.2 mm 4 mps 732 mmHg 65%
    11:00 +23°C° 1 mm 4 mps 732 mmHg 68%
    12:00 +23°C° 1 mm 4 mps 731 mmHg 70%
    13:00 +22°C° 1 mm 4 mps 731 mmHg 73%
    14:00 +22°C° 0.6 mm 3 mps 731 mmHg 73%
    15:00 +23°C° 0.6 mm 2 mps 731 mmHg 72%
    16:00 +23°C° 0.6 mm 1 mps 731 mmHg 71%
    17:00 +22°C° 1.6 mm 1 mps 731 mmHg 76%
    18:00 +20°C° 1.6 mm 1 mps 731 mmHg 80%
    19:00 +19°C° 1.6 mm 1 mps 731 mmHg 85%
    20:00 +18°C° 0.1 mm 1 mps 732 mmHg 88%
    21:00 +16°C° 0.1 mm 2 mps 732 mmHg 91%
    22:00 +14°C° 0.1 mm 3 mps 733 mmHg 93%
    23:00 +14°C° 0 mm 3 mps 733 mmHg 94%

    Day after tomorrow, 29 May, Wednesday

    Time Temperature Precipitation Wind Pressure Humidity
    00:00 +14°C° 0 mm 3 mps 734 mmHg 95%
    01:00 +13°C° 0 mm 4 mps 734 mmHg 96%
    02:00 +12°C° 0.1 mm 4 mps 735 mmHg 95%
    03:00 +12°C° 0.1 mm 5 mps 735 mmHg 95%
    04:00 +10°C° 0.1 mm 5 mps 736 mmHg 94%
    05:00 +10°C° 0 mm 5 mps 736 mmHg 92%
    06:00 +9°C° 0 mm 5 mps 737 mmHg 90%
    07:00 +9°C° 0 mm 5 mps 737 mmHg 89%
    08:00 +10°C° 0 mm 5 mps 738 mmHg 84%
    09:00 +12°C° 0 mm 5 mps 739 mmHg 79%
    10:00 +13°C° 0 mm 5 mps 739 mmHg 74%
    11:00 +13°C° 0 mm 5 mps 739 mmHg 71%
    12:00 +14°C° 0 mm 5 mps 740 mmHg 67%
    13:00 +15°C° 0 mm 5 mps 740 mmHg 63%
    14:00 +15°C° 0 mm 5 mps 740 mmHg 62%
    15:00 +15°C° 0 mm 4 mps 740 mmHg 62%
    16:00 +17°C° 0 mm 4 mps 740 mmHg 61%
    17:00 +15°C° 0 mm 4 mps 740 mmHg 66%
    18:00 +14°C° 0 mm 3 mps 740 mmHg 71%
    19:00 +12°C° 0 mm 3 mps 740 mmHg 76%
    20:00 +12°C° 0 mm 3 mps 740 mmHg 80%
    21:00 +11°C° 0 mm 3 mps 741 mmHg 83%
    22:00 +10°C° 0 mm 2 mps 741 mmHg 87%
    23:00 +10°C° 0 mm 3 mps 741 mmHg 85%

    30 May, Thursday

    Time Temperature Precipitation Wind Pressure Humidity
    00:00 +11°C° 0 mm 3 mps 741 mmHg 83%
    01:00 +11°C° 0 mm 4 mps 741 mmHg 80%
    02:00 +10°C° 0.8 mm 3 mps 741 mmHg 84%
    03:00 +10°C° 0.8 mm 3 mps 741 mmHg 88%
    04:00 +9°C° 0.8 mm 3 mps 741 mmHg 92%
    05:00 +9°C° 1.2 mm 3 mps 742 mmHg 92%
    06:00 +9°C° 1.2 mm 3 mps 742 mmHg 93%
    07:00 +8°C° 1.2 mm 3 mps 742 mmHg 94%
    08:00 +8°C° 0.3 mm 3 mps 742 mmHg 93%
    09:00 +8°C° 0.3 mm 3 mps 742 mmHg 92%
    10:00 +8°C° 0.3 mm 3 mps 742 mmHg 91%
    11:00 +9°C° 0 mm 3 mps 742 mmHg 87%
    12:00 +10°C° 0 mm 2 mps 743 mmHg 84%
    13:00 +12°C° 0 mm 2 mps 743 mmHg 80%
    14:00 +13°C° 0 mm 2 mps 742 mmHg 76%
    15:00 +14°C° 0 mm 2 mps 742 mmHg 72%
    16:00 +15°C° 0 mm 1 mps 742 mmHg 68%
    17:00 +14°C° 0 mm 1 mps 742 mmHg 73%
    18:00 +13°C° 0 mm 0 mps 742 mmHg 77%
    19:00 +12°C° 0 mm 0 mps 742 mmHg 81%
    20:00 +12°C° 0 mm 0 mps 742 mmHg 83%
    21:00 +11°C° 0 mm 0 mps 742 mmHg 85%
    22:00 +10°C° 0 mm 0 mps 742 mmHg 87%
    23:00 +10°C° 0 mm 0 mps 742 mmHg 89%

    31 May, Friday

    Time Temperature Precipitation Wind Pressure Humidity
    00:00 +10°C° 0 mm 1 mps 741 mmHg 91%
    01:00 +10°C° 0 mm 1 mps 741 mmHg 93%
    02:00 +10°C° 0 mm 1 mps 741 mmHg 94%
    03:00 +9°C° 0 mm 1 mps 740 mmHg 94%
    04:00 +9°C° 0 mm 1 mps 740 mmHg 95%
    05:00 +10°C° 0 mm 2 mps 740 mmHg 89%
    06:00 +13°C° 0 mm 2 mps 740 mmHg 82%
    07:00 +15°C° 0 mm 2 mps 740 mmHg 76%
    08:00 +16°C° 0 mm 2 mps 739 mmHg 70%
    09:00 +18°C° 0 mm 2 mps 739 mmHg 65%
    10:00 +20°C° 0 mm 2 mps 738 mmHg 59%
    11:00 +20°C° 0 mm 2 mps 738 mmHg 58%
    12:00 +21°C° 0 mm 3 mps 738 mmHg 56%
    13:00 +22°C° 0 mm 3 mps 738 mmHg 54%
    14:00 +20°C° 0.8 mm 5 mps 738 mmHg 64%
    15:00 +17°C° 0.8 mm 7 mps 739 mmHg 74%
    16:00 +15°C° 0.8 mm 9 mps 740 mmHg 84%
    17:00 +11°C° 0.2 mm 9 mps 741 mmHg 85%
    18:00 +8°C° 0.2 mm 9 mps 742 mmHg 86%
    19:00 +5°C° 0.2 mm 9 mps 743 mmHg 87%
    20:00 +5°C° 0.1 mm 7 mps 744 mmHg 85%
    21:00 +7°C° 0.1 mm 6 mps 744 mmHg 84%
    22:00 +7°C° 0.1 mm 4 mps 745 mmHg 82%
    23:00 +6°C° 0 mm 4 mps 746 mmHg 79%

    1 June, Saturday

    Time Temperature Precipitation Wind Pressure Humidity
    00:00 +6°C° 0 mm 5 mps 746 mmHg 75%
    01:00 +6°C° 0 mm 5 mps 746 mmHg 72%
    02:00 +5°C° 0 mm 5 mps 746 mmHg 73%
    03:00 +5°C° 0 mm 4 mps 747 mmHg 75%
    04:00 +4°C° 0 mm 4 mps 747 mmHg 76%
    05:00 +5°C° 0 mm 4 mps 747 mmHg 73%
    06:00 +7°C° 0 mm 5 mps 747 mmHg 70%
    07:00 +8°C° 0 mm 5 mps 747 mmHg 67%
    08:00 +9°C° 0 mm 5 mps 748 mmHg 61%
    09:00 +12°C° 0 mm 5 mps 748 mmHg 56%
    10:00 +13°C° 0 mm 5 mps 748 mmHg 50%
    11:00 +14°C° 0 mm 5 mps 748 mmHg 49%
    12:00 +14°C° 0 mm 5 mps 748 mmHg 49%
    13:00 +15°C° 0 mm 5 mps 747 mmHg 48%
    14:00 +14°C° 0 mm 5 mps 748 mmHg 52%
    15:00 +14°C° 0 mm 5 mps 748 mmHg 56%
    16:00 +13°C° 0 mm 5 mps 748 mmHg 60%
    17:00 +13°C° 0 mm 5 mps 748 mmHg 64%
    18:00 +12°C° 0 mm 4 mps 748 mmHg 68%
    19:00 +11°C° 0 mm 3 mps 748 mmHg 73%
    20:00 +10°C° 0 mm 3 mps 748 mmHg 77%
    21:00 +9°C° 0 mm 3 mps 749 mmHg 81%
    22:00 +8°C° 0 mm 3 mps 749 mmHg 85%
    23:00 +7°C° 0 mm 2 mps 749 mmHg 87%
    Show more